Time,TemperatureF,DewpointF,PressureIn,WindDirection,WindDirectionDegrees,WindSpeedMPH,WindSpeedGustMPH,Humidity,HourlyPrecipIn,Conditions,Clouds,dailyrainin,SoftwareType,DateUTC
2013-08-24 00:03:00,60.6,45.0,31.87,NNW,329,12.0,15.0,57,0.00,,,0.00,weatherlink.com 1.10,2013-08-24 06:03:00,
2013-08-24 00:18:00,60.3,45.0,31.87,NW,321,15.0,17.0,57,0.00,,,0.00,weatherlink.com 1.10,2013-08-24 06:18:00,
2013-08-24 00:33:00,60.1,45.0,31.87,NNW,329,13.0,16.0,58,0.00,,,0.00,weatherlink.com 1.10,2013-08-24 06:33:00,
2013-08-24 00:48:00,60.0,45.0,31.87,NW,322,11.0,16.0,58,0.00,,,0.00,weatherlink.com 1.10,2013-08-24 06:48:00,
2013-08-24 01:03:00,59.6,45.0,31.87,NNW,329,9.0,16.0,60,0.00,,,0.00,weatherlink.com 1.10,2013-08-24 07:03:00,
2013-08-24 01:18:00,59.4,46.0,31.87,NNW,340,10.0,14.0,61,0.00,,,0.00,weatherlink.com 1.10,2013-08-24 07:18:00,
2013-08-24 01:33:00,59.4,46.0,31.87,NNW,330,10.0,14.0,62,0.00,,,0.00,weatherlink.com 1.10,2013-08-24 07:33:00,
2013-08-24 01:48:00,59.2,46.0,31.87,NW,324,13.0,13.0,62,0.00,,,0.00,weatherlink.com 1.10,2013-08-24 07:48:00,
2013-08-24 02:03:00,58.9,46.0,31.87,NNW,341,11.0,13.0,63,0.00,,,0.00,weatherlink.com 1.10,2013-08-24 08:03:00,
2013-08-24 02:18:00,58.9,46.0,31.87,NNW,331,7.0,11.0,63,0.00,,,0.00,weatherlink.com 1.10,2013-08-24 08:18:00,
2013-08-24 02:33:00,58.9,46.0,31.87,NW,325,8.0,11.0,62,0.00,,,0.00,weatherlink.com 1.10,2013-08-24 08:33:00,
2013-08-24 02:48:00,58.8,46.0,31.87,NW,321,11.0,12.0,63,0.00,,,0.00,weatherlink.com 1.10,2013-08-24 08:48:00,
2013-08-24 03:03:00,58.8,46.0,31.87,NW,315,8.0,12.0,62,0.00,,,0.00,weatherlink.com 1.10,2013-08-24 09:03:00,
2013-08-24 03:18:00,58.9,46.0,31.87,NW,319,8.0,11.0,62,0.00,,,0.00,weatherlink.com 1.10,2013-08-24 09:18:00,
2013-08-24 03:33:00,58.9,46.0,31.87,WNW,302,7.0,10.0,62,0.00,,,0.00,weatherlink.com 1.10,2013-08-24 09:33:00,
2013-08-24 03:48:00,58.8,45.0,31.87,NW,318,7.0,9.0,61,0.00,,,0.00,weatherlink.com 1.10,2013-08-24 09:48:00,
2013-08-24 04:03:00,58.6,45.0,31.87,NW,321,7.0,9.0,61,0.00,,,0.00,weatherlink.com 1.10,2013-08-24 10:03:00,
2013-08-24 04:18:00,58.5,44.0,31.87,NNW,338,7.0,8.0,60,0.00,,,0.00,weatherlink.com 1.10,2013-08-24 10:18:00,
2013-08-24 04:33:00,58.8,44.0,31.87,WNW,284,7.0,8.0,58,0.00,,,0.00,weatherlink.com 1.10,2013-08-24 10:33:00,
2013-08-24 04:48:00,59.2,43.0,31.87,WNW,299,4.0,7.0,55,0.00,,,0.00,weatherlink.com 1.10,2013-08-24 10:48:00,
2013-08-24 05:03:00,58.9,42.0,31.87,WNW,297,4.0,7.0,53,0.00,,,0.00,weatherlink.com 1.10,2013-08-24 11:03:00,
2013-08-24 05:18:00,58.9,40.0,31.87,NW,306,6.0,7.0,50,0.00,,,0.00,weatherlink.com 1.10,2013-08-24 11:18:00,
2013-08-24 05:33:00,59.0,40.0,31.87,WNW,302,4.0,6.0,50,0.00,,,0.00,weatherlink.com 1.10,2013-08-24 11:33:00,
2013-08-24 05:48:00,59.1,40.0,31.87,WNW,298,5.0,5.0,50,0.00,,,0.00,weatherlink.com 1.10,2013-08-24 11:48:00,
2013-08-24 06:03:00,58.7,41.0,31.87,WNW,287,3.0,5.0,52,0.00,,,0.00,weatherlink.com 1.10,2013-08-24 12:03:00,
2013-08-24 06:18:00,58.1,40.0,31.87,WNW,286,4.0,4.0,52,0.00,,,0.00,weatherlink.com 1.10,2013-08-24 12:18:00,
2013-08-24 06:33:00,58.3,42.0,31.87,WNW,286,2.0,5.0,56,0.00,,,0.00,weatherlink.com 1.10,2013-08-24 12:33:00,
2013-08-24 06:49:00,57.5,44.0,31.87,WNW,286,1.0,2.0,62,0.00,,,0.00,weatherlink.com 1.10,2013-08-24 12:49:00,
2013-08-24 07:04:00,57.2,45.0,31.87,WNW,286,2.0,3.0,63,0.00,,,0.00,weatherlink.com 1.10,2013-08-24 13:04:00,
2013-08-24 07:19:00,57.4,44.0,31.87,West,264,2.0,3.0,62,0.00,,,0.00,weatherlink.com 1.10,2013-08-24 13:19:00,
2013-08-24 07:34:00,57.1,44.0,31.87,SSE,153,4.0,5.0,63,0.00,,,0.00,weatherlink.com 1.10,2013-08-24 13:34:00,
2013-08-24 07:49:00,57.7,45.0,31.87,SSE,148,4.0,6.0,63,0.00,,,0.00,weatherlink.com 1.10,2013-08-24 13:49:00,
2013-08-24 08:04:00,57.9,45.0,31.87,SE,146,4.0,6.0,63,0.00,,,0.00,weatherlink.com 1.10,2013-08-24 14:04:00,
2013-08-24 08:19:00,57.6,44.0,31.87,ESE,113,5.0,7.0,61,0.00,,,0.00,weatherlink.com 1.10,2013-08-24 14:19:00,
2013-08-24 08:34:00,57.5,45.0,31.87,SE,126,7.0,8.0,63,0.00,,,0.00,weatherlink.com 1.10,2013-08-24 14:34:00,
2013-08-24 08:49:00,57.1,45.0,31.87,SE,140,10.0,11.0,65,0.00,,,0.00,weatherlink.com 1.10,2013-08-24 14:49:00,
2013-08-24 09:04:00,57.8,46.0,31.87,SSE,160,6.0,12.0,64,0.00,,,0.00,weatherlink.com 1.10,2013-08-24 15:04:00,
2013-08-24 09:19:00,59.1,45.0,31.87,SE,145,6.0,9.0,61,0.00,,,0.00,weatherlink.com 1.10,2013-08-24 15:19:00,
2013-08-24 09:34:00,59.0,46.0,31.87,ESE,116,8.0,11.0,63,0.00,,,0.00,weatherlink.com 1.10,2013-08-24 15:34:00,
2013-08-24 09:49:00,59.8,46.0,31.87,ESE,106,8.0,11.0,60,0.00,,,0.00,weatherlink.com 1.10,2013-08-24 15:49:00,
2013-08-24 10:04:00,60.7,46.0,31.87,ESE,116,5.0,12.0,59,0.00,,,0.00,weatherlink.com 1.10,2013-08-24 16:04:00,
2013-08-24 10:19:00,61.8,46.0,31.87,ESE,106,8.0,11.0,57,0.00,,,0.00,weatherlink.com 1.10,2013-08-24 16:19:00,
2013-08-24 10:34:00,63.1,46.0,31.87,SE,124,5.0,11.0,54,0.00,,,0.00,weatherlink.com 1.10,2013-08-24 16:34:00,
2013-08-24 10:50:00,64.5,46.0,31.87,SSE,154,5.0,10.0,51,0.00,,,0.00,weatherlink.com 1.10,2013-08-24 16:50:00,
2013-08-24 11:05:00,65.3,45.0,31.87,ESE,105,7.0,11.0,49,0.00,,,0.00,weatherlink.com 1.10,2013-08-24 17:05:00,
2013-08-24 11:20:00,65.7,45.0,31.87,SE,132,2.0,11.0,47,0.00,,,0.00,weatherlink.com 1.10,2013-08-24 17:20:00,
2013-08-24 11:35:00,65.8,44.0,31.87,South,186,3.0,7.0,45,0.00,,,0.00,weatherlink.com 1.10,2013-08-24 17:35:00,
2013-08-24 11:50:00,67.7,44.0,31.87,ESE,104,2.0,7.0,43,0.00,,,0.00,weatherlink.com 1.10,2013-08-24 17:50:00,
2013-08-24 12:05:00,68.4,44.0,31.87,SW,233,2.0,6.0,41,0.00,,,0.00,weatherlink.com 1.10,2013-08-24 18:05:00,
2013-08-24 12:20:00,67.9,46.0,31.87,WSW,248,2.0,8.0,46,0.00,,,0.00,weatherlink.com 1.10,2013-08-24 18:20:00,
2013-08-24 12:35:00,67.9,43.0,31.87,ESE,113,3.0,9.0,40,0.00,,,0.00,weatherlink.com 1.10,2013-08-24 18:35:00,
2013-08-24 12:50:00,68.1,41.0,31.87,SW,215,3.0,12.0,38,0.00,,,0.00,weatherlink.com 1.10,2013-08-24 18:50:00,
2013-08-24 13:05:00,68.8,43.0,31.87,South,173,0.0,12.0,39,0.00,,,0.00,weatherlink.com 1.10,2013-08-24 19:05:00,
2013-08-24 13:20:00,69.5,43.0,31.87,SW,217,8.0,11.0,39,0.00,,,0.00,weatherlink.com 1.10,2013-08-24 19:20:00,
2013-08-24 13:35:00,70.5,42.0,31.87,South,173,6.0,15.0,36,0.00,,,0.00,weatherlink.com 1.10,2013-08-24 19:35:00,
2013-08-24 13:50:00,70.1,43.0,31.87,South,184,9.0,17.0,38,0.00,,,0.00,weatherlink.com 1.10,2013-08-24 19:50:00,
2013-08-24 14:05:00,71.5,41.0,31.87,SE,128,10.0,15.0,33,0.00,,,0.00,weatherlink.com 1.10,2013-08-24 20:05:00,
2013-08-24 14:20:00,71.8,39.0,31.87,South,190,9.0,14.0,31,0.00,,,0.00,weatherlink.com 1.10,2013-08-24 20:20:00,
2013-08-24 14:35:00,71.5,38.0,31.87,SSE,165,8.0,16.0,29,0.00,,,0.00,weatherlink.com 1.10,2013-08-24 20:35:00,
2013-08-24 14:50:00,73.4,37.0,31.87,South,170,8.0,16.0,27,0.00,,,0.00,weatherlink.com 1.10,2013-08-24 20:50:00,
2013-08-24 15:05:00,73.8,37.0,31.87,South,172,8.0,15.0,26,0.00,,,0.00,weatherlink.com 1.10,2013-08-24 21:05:00,
2013-08-24 15:20:00,74.3,37.0,31.87,SSW,195,5.0,15.0,26,0.00,,,0.00,weatherlink.com 1.10,2013-08-24 21:20:00,
2013-08-24 15:35:00,73.3,38.0,31.87,South,188,8.0,14.0,28,0.00,,,0.00,weatherlink.com 1.10,2013-08-24 21:35:00,
2013-08-24 15:50:00,71.9,40.0,31.87,SE,139,5.0,11.0,31,0.00,,,0.00,weatherlink.com 1.10,2013-08-24 21:50:00,
2013-08-24 16:05:00,71.9,40.0,31.87,SSW,208,9.0,13.0,31,0.00,,,0.00,weatherlink.com 1.10,2013-08-24 22:05:00,
2013-08-24 16:20:00,74.1,41.0,31.87,SW,227,9.0,14.0,30,0.00,,,0.00,weatherlink.com 1.10,2013-08-24 22:20:00,
2013-08-24 16:35:00,75.0,38.0,31.87,SSW,201,10.0,14.0,26,0.00,,,0.00,weatherlink.com 1.10,2013-08-24 22:35:00,
2013-08-24 16:50:00,74.3,38.0,31.87,SSW,198,6.0,13.0,27,0.00,,,0.00,weatherlink.com 1.10,2013-08-24 22:50:00,
2013-08-24 17:05:00,73.9,38.0,31.87,SSW,207,3.0,11.0,27,0.00,,,0.00,weatherlink.com 1.10,2013-08-24 23:05:00,
2013-08-24 17:20:00,74.9,37.0,31.87,SSW,198,7.0,12.0,25,0.00,,,0.00,weatherlink.com 1.10,2013-08-24 23:20:00,
2013-08-24 17:35:00,75.1,37.0,31.87,SSE,153,4.0,14.0,25,0.00,,,0.00,weatherlink.com 1.10,2013-08-24 23:35:00,
2013-08-24 17:50:00,75.4,35.0,31.87,SW,226,8.0,13.0,23,0.00,,,0.00,weatherlink.com 1.10,2013-08-24 23:50:00,
2013-08-24 18:06:00,73.9,38.0,31.87,West,277,3.0,12.0,27,0.00,,,0.00,weatherlink.com 1.10,2013-08-25 00:06:00,
2013-08-24 18:20:00,72.9,39.0,31.87,West,271,2.0,6.0,29,0.00,,,0.00,weatherlink.com 1.10,2013-08-25 00:20:00,
2013-08-24 18:36:00,72.4,39.0,31.87,West,281,2.0,5.0,30,0.00,,,0.00,weatherlink.com 1.10,2013-08-25 00:36:00,
2013-08-24 18:51:00,71.9,39.0,31.87,WNW,286,2.0,4.0,30,0.00,,,0.00,weatherlink.com 1.10,2013-08-25 00:51:00,
2013-08-24 19:06:00,71.5,37.0,31.87,SE,146,5.0,12.0,28,0.00,,,0.00,weatherlink.com 1.10,2013-08-25 01:06:00,
2013-08-24 19:21:00,71.2,35.0,31.87,SSE,165,4.0,10.0,27,0.00,,,0.00,weatherlink.com 1.10,2013-08-25 01:21:00,
2013-08-24 19:36:00,70.8,37.0,31.87,South,185,5.0,10.0,29,0.00,,,0.00,weatherlink.com 1.10,2013-08-25 01:36:00,
2013-08-24 19:51:00,69.8,36.0,31.87,ESE,123,9.0,11.0,29,0.00,,,0.00,weatherlink.com 1.10,2013-08-25 01:51:00,
2013-08-24 20:06:00,69.4,36.0,31.87,ESE,118,8.0,11.0,29,0.00,,,0.00,weatherlink.com 1.10,2013-08-25 02:06:00,
2013-08-24 20:21:00,69.8,34.0,31.87,SE,128,6.0,9.0,27,0.00,,,0.00,weatherlink.com 1.10,2013-08-25 02:21:00,
2013-08-24 20:36:00,69.9,34.0,31.87,SSW,193,9.0,13.0,27,0.00,,,0.00,weatherlink.com 1.10,2013-08-25 02:36:00,
2013-08-24 20:51:00,68.4,36.0,31.87,SSE,153,15.0,19.0,31,0.00,,,0.00,weatherlink.com 1.10,2013-08-25 02:51:00,
2013-08-24 21:06:00,68.0,36.0,31.87,SE,131,17.0,27.0,31,0.00,,,0.00,weatherlink.com 1.10,2013-08-25 03:06:00,
2013-08-24 21:21:00,68.2,36.0,31.87,SE,140,19.0,22.0,31,0.00,,,0.00,weatherlink.com 1.10,2013-08-25 03:21:00,
2013-08-24 21:36:00,67.9,37.0,31.87,SSE,155,13.0,21.0,32,0.00,,,0.00,weatherlink.com 1.10,2013-08-25 03:36:00,
2013-08-24 21:51:00,66.8,37.0,31.87,SE,136,21.0,26.0,34,0.00,,,0.00,weatherlink.com 1.10,2013-08-25 03:51:00,
2013-08-24 22:06:00,64.7,40.0,31.87,SW,219,18.0,28.0,40,0.00,,,0.00,weatherlink.com 1.10,2013-08-25 04:06:00,
2013-08-24 22:21:00,62.6,41.0,31.87,South,180,21.0,32.0,46,0.00,,,0.00,weatherlink.com 1.10,2013-08-25 04:21:00,
2013-08-24 22:36:00,62.7,41.0,31.87,South,180,14.0,31.0,45,0.00,,,0.00,weatherlink.com 1.10,2013-08-25 04:36:00,
2013-08-24 22:51:00,62.7,41.0,31.87,South,185,16.0,29.0,45,0.00,,,0.00,weatherlink.com 1.10,2013-08-25 04:51:00,
2013-08-24 23:06:00,62.6,41.0,31.87,South,175,16.0,25.0,46,0.00,,,0.00,weatherlink.com 1.10,2013-08-25 05:06:00,
2013-08-24 23:21:00,62.3,41.0,31.87,SE,145,17.0,24.0,46,0.00,,,0.00,weatherlink.com 1.10,2013-08-25 05:21:00,
2013-08-24 23:36:00,62.2,42.0,31.87,SSE,159,17.0,22.0,47,0.00,,,0.00,weatherlink.com 1.10,2013-08-25 05:36:00,
2013-08-24 23:51:00,62.0,41.0,31.87,South,174,13.0,22.0,47,0.00,,,0.00,weatherlink.com 1.10,2013-08-25 05:51:00,